Wind_Speed
6 6 6 6 5 5 5 4 4 5 7 8 9 11 12 12 10 10 9 9 8 8 8 7 7 7 7 8 8 8 8 8 8 8 8 7 8 7 7 8 8 8 8 8 8 8 8 8 7
6 7 7 7 6 5 4 5 5 6 7 9 11 11 11 11 10 9 9 9 9 8 7 7 7 8 8 8 9 9 9 9 8 8 8 8 8 8 8 8 8 8 8 8 9 9 8 8 8
7 7 8 8 7 7 6 7 6 7 8 10 12 11 10 10 10 9 9 9 8 7 7 7 7 8 8 9 9 9 9 9 8 9 9 9 8 8 9 8 8 8 8 8 8 9 9 9 9
8 8 8 8 7 8 9 9 8 9 9 10 12 12 11 11 11 10 10 9 8 8 8 8 8 8 9 9 9 9 8 8 8 9 9 9 8 8 9 8 8 8 8 8 8 9 9 9 9
10 10 9 8 8 9 10 9 9 9 9 10 11 12 13 12 11 11 10 9 9 9 8 9 9 9 10 10 10 9 8 8 9 9 9 9 8 8 8 8 8 8 8 8 9 9 10 10 10
11 11 10 9 9 9 9 9 10 11 12 12 12 12 12 13 12 11 10 10 10 9 8 9 9 10 10 9 9 9 8 9 9 10 9 9 9 8 8 8 8 9 9 10 10 10 10 10 10
12 10 10 9 9 8 8 8 11 12 14 13 13 12 13 13 13 11 11 10 9 9 9 9 9 9 9 9 9 9 9 8 9 10 9 9 9 9 9 9 9 10 10 11 11 10 10 10 10
12 11 10 9 10 9 9 8 10 12 14 14 13 13 13 13 13 12 11 10 10 9 9 10 9 10 10 10 10 9 10 9 10 10 10 10 9 9 9 9 10 10 11 11 11 10 10 10 10
13 12 11 10 11 10 9 9 10 12 14 14 14 13 13 13 13 12 11 10 10 10 10 10 10 10 11 10 9 10 10 10 10 10 10 10 10 10 9 10 10 11 11 11 11 11 11 11 11
13 12 12 12 12 11 10 11 12 13 14 15 15 14 13 13 13 13 12 11 11 11 11 11 11 10 11 10 10 10 10 10 10 11 11 10 10 10 10 11 11 11 12 12 11 12 11 12 12
13 13 14 14 13 12 11 11 13 14 14 15 14 13 12 13 12 12 11 11 11 12 11 11 11 11 11 10 10 10 10 10 10 10 10 10 11 11 12 12 12 12 12 12 12 12 12 12 12
13 14 15 15 14 14 13 13 14 15 15 15 14 13 12 13 12 12 12 12 10 11 12 11 12 11 10 11 11 10 10 10 10 11 11 11 12 12 12 12 12 12 13 13 12 12 12 12 12
13 14 16 16 15 15 15 15 15 15 15 14 14 14 13 13 13 11 11 13 11 11 10 11 12 11 10 10 10 10 10 10 9 10 10 11 12 12 12 13 13 13 13 12 12 12 13 13 13
14 14 15 14 14 14 15 15 16 15 13 13 14 13 13 13 12 12 11 12 12 12 11 11 12 12 12 10 11 12 12 11 9 9 11 12 12 12 13 13 13 13 13 14 14 14 14 14 15
14 15 15 13 13 13 14 14 13 12 13 13 13 14 14 14 13 14 12 11 12 12 12 11 11 12 12 11 11 12 12 12 11 12 11 11 12 13 13 13 14 15 16 16 16 15 15 15 16
15 15 14 12 13 12 14 13 11 11 13 13 13 13 14 14 14 13 12 11 11 11 11 11 11 12 12 13 12 12 12 12 12 13 12 12 13 13 14 14 15 16 16 16 15 15 14 15 15
15 15 13 11 11 11 13 13 11 11 13 13 12 11 12 14 14 12 12 11 11 11 11 11 12 13 13 13 13 12 13 13 13 13 13 13 13 14 14 15 15 16 16 15 15 15 15 15 15
14 15 14 12 11 12 14 14 12 12 13 13 12 11 12 13 13 12 12 11 11 12 12 12 13 13 14 13 13 13 13 12 13 13 14 14 14 14 15 15 15 16 17 16 15 15 15 15 15
15 16 15 12 13 15 15 16 14 13 12 12 11 12 13 12 13 13 13 12 12 12 12 13 13 14 14 14 14 14 14 14 14 14 14 14 14 14 15 16 16 16 16 15 15 15 16 16 15
15 16 15 14 15 16 17 16 15 14 12 11 11 12 13 13 14 14 14 14 13 13 13 13 14 14 15 15 15 14 14 15 14 15 15 14 14 14 15 16 16 16 15 15 14 15 15 16 16
16 16 16 16 15 16 16 16 14 14 13 13 12 13 12 12 14 15 15 14 13 14 14 14 15 15 15 15 15 14 14 14 14 15 15 14 14 14 15 15 16 16 15 16 16 15 15 16 17
17 16 17 16 16 16 17 17 13 14 13 13 13 14 13 14 15 15 16 16 15 14 14 15 15 15 15 15 14 14 14 14 14 15 14 15 15 14 15 15 15 15 15 15 16 15 15 16 17
15 15 17 17 17 17 17 19 14 12 11 12 13 15 15 15 15 15 16 16 16 15 16 15 14 14 14 14 14 14 14 15 15 15 15 15 15 15 16 16 16 16 16 15 15 14 15 15 16
14 15 17 18 19 19 16 18 16 14 12 12 14 15 15 16 15 15 15 16 15 16 16 16 15 15 15 15 14 14 15 16 16 15 15 15 15 16 16 16 16 16 16 16 15 15 15 15 16
16 17 18 18 19 19 17 19 18 15 15 16 16 16 16 16 15 15 16 15 15 15 16 16 16 15 15 15 15 15 15 16 16 16 15 15 15 15 16 16 16 16 16 16 16 16 16 16 15
17 18 19 19 19 18 17 19 17 17 16 17 16 16 17 16 16 17 16 17 16 15 16 16 16 16 16 15 15 15 15 15 15 15 14 14 15 15 15 15 16 16 16 16 16 16 16 16 16
18 19 18 19 20 20 19 18 18 18 17 17 17 17 16 15 15 16 17 16 16 16 16 16 16 16 16 15 15 15 15 15 14 14 14 15 15 15 15 15 16 16 16 16 16 16 16 15 15
18 17 18 18 20 20 20 19 17 17 17 18 18 18 17 16 16 17 16 16 16 15 15 16 16 16 16 16 16 16 16 15 15 15 15 15 15 15 15 16 16 16 16 16 16 15 15 15 15
18 19 19 21 22 23 22 20 18 18 18 19 19 18 18 17 17 17 16 17 17 16 16 16 16 16 17 16 16 16 16 15 15 15 15 16 16 16 16 15 16 16 16 15 15 14 14 15 15
20 20 21 22 23 23 23 22 19 18 19 19 19 18 18 19 18 17 16 16 16 16 16 16 15 15 16 16 15 14 15 15 15 16 16 16 16 16 16 16 16 17 16 15 15 14 14 15 15
Wind_Direction
219 218 218 222 230 237 251 277 298 303 306 301 299 304 306 307 309 308 308 307 310 317 317 310 312 315 312 307 303 302 298 296 294 290 284 277 274 270 268 268 267 265 267 269 268 269 267 265 267
216 218 224 225 232 249 261 269 282 290 296 298 298 302 306 307 306 307 308 308 308 310 312 312 312 312 311 306 298 296 293 292 293 289 283 280 275 270 266 267 266 268 272 272 269 269 269 270 270
220 224 229 231 236 248 259 266 271 282 293 303 304 303 304 305 304 306 311 308 308 308 309 311 312 310 309 305 299 292 289 288 288 285 281 279 276 270 265 264 266 271 273 273 269 267 270 272 272
227 228 233 234 241 252 263 274 277 280 288 302 303 304 305 305 305 307 309 305 302 299 300 304 306 307 306 304 301 293 286 286 287 285 282 279 280 275 267 263 266 271 273 274 273 269 271 273 272
236 236 238 241 245 258 273 281 287 291 292 296 300 303 303 301 302 307 306 301 298 296 298 301 300 301 302 303 301 294 286 283 282 283 283 277 276 276 272 266 268 269 271 275 276 274 273 272 270
240 242 243 244 243 259 275 286 288 294 291 291 298 297 298 299 298 300 303 299 296 297 302 303 300 298 298 299 296 294 289 288 284 281 280 279 280 278 276 269 270 271 273 277 277 276 276 273 270
239 239 235 238 242 255 270 284 289 290 287 291 299 299 297 299 297 295 296 298 302 302 302 303 298 295 295 294 291 291 291 289 284 281 281 278 279 279 278 273 273 274 276 279 278 277 277 274 271
239 241 239 240 242 249 260 272 283 285 285 289 291 297 293 298 299 297 294 294 300 302 300 300 296 288 287 291 291 290 287 282 281 278 276 276 277 278 280 277 277 278 279 279 278 280 278 275 273
243 243 238 242 244 250 261 268 279 287 291 290 289 292 287 290 299 301 297 294 298 299 300 299 296 289 286 288 290 289 284 280 278 275 274 275 275 277 277 275 279 279 276 276 279 279 277 274 270
245 240 237 243 246 249 259 267 273 282 288 287 289 293 289 290 294 298 299 297 296 296 293 295 295 293 286 286 286 280 282 280 277 276 274 273 274 274 276 277 277 279 278 277 277 277 275 273 271
244 241 240 244 247 248 255 268 272 272 278 284 292 297 294 293 293 297 302 302 299 295 291 287 290 290 288 288 283 280 284 281 271 272 273 274 276 277 278 278 279 279 279 277 273 273 273 271 269
244 240 240 246 248 249 255 264 272 272 277 283 289 290 292 294 294 299 302 302 300 300 297 289 290 287 286 288 286 284 286 279 269 273 274 276 280 282 283 280 281 282 279 277 274 272 268 266 265
244 245 244 247 250 255 259 265 272 275 278 279 283 288 291 298 299 299 300 299 302 306 300 293 294 291 288 290 289 290 287 279 269 274 274 277 281 283 283 285 286 282 279 278 275 274 270 266 265
243 245 243 246 251 255 260 263 268 271 276 277 284 292 295 294 296 296 297 300 302 302 300 296 295 289 287 285 284 284 282 278 275 280 280 283 287 285 286 288 287 284 282 280 277 275 270 266 264
246 245 241 244 250 257 258 261 271 271 271 275 282 291 291 290 289 290 291 297 300 301 304 297 292 288 284 283 285 288 285 284 284 286 285 289 290 287 286 287 286 285 284 280 275 275 273 268 262
249 251 244 247 247 255 259 262 267 269 272 276 281 287 288 291 289 288 287 292 294 298 303 300 295 292 288 288 287 288 284 285 285 285 287 290 292 288 286 287 286 285 284 283 274 273 271 266 263
252 258 253 249 252 259 259 263 264 267 273 276 279 285 288 288 288 286 285 291 294 293 295 297 296 292 289 291 291 285 282 282 283 285 287 289 289 288 288 290 288 287 285 285 279 274 272 265 264
253 256 253 248 252 256 255 259 261 264 268 271 275 281 285 285 288 287 287 293 294 294 293 295 295 295 291 290 287 288 284 283 283 283 284 288 288 290 291 292 293 290 287 284 281 274 272 267 264
250 254 254 247 247 253 255 258 262 264 262 264 270 278 281 285 285 287 290 293 292 293 294 293 294 295 291 290 289 289 286 282 282 283 282 282 284 289 292 294 294 293 288 283 281 274 271 268 266
249 257 257 249 250 255 256 257 259 261 266 264 266 278 277 273 274 282 287 289 290 291 290 290 292 294 290 287 286 286 284 281 283 286 284 284 286 289 291 293 292 292 289 283 279 275 269 267 266
248 256 259 258 252 256 257 254 255 261 263 267 269 274 273 272 276 280 283 286 288 288 288 287 288 289 287 284 282 282 284 284 285 289 286 284 287 289 291 290 290 288 287 283 278 275 269 268 267
250 254 258 257 255 257 260 261 253 257 262 265 269 272 271 274 282 285 284 284 285 288 286 286 285 284 285 283 281 280 283 285 285 288 286 284 284 286 288 290 291 288 286 284 278 274 272 271 270
247 251 253 254 254 256 258 261 253 252 259 262 266 270 270 274 285 287 285 283 286 288 287 288 287 284 283 281 279 283 283 282 281 283 285 284 283 285 288 289 289 289 286 282 277 273 273 272 271
245 244 246 249 251 250 250 254 250 250 257 263 267 269 273 279 285 286 288 287 286 289 288 288 288 285 279 278 278 281 281 280 281 281 284 284 284 286 288 290 289 289 285 280 276 274 274 274 272
240 241 247 249 250 250 250 251 255 256 260 264 265 266 273 279 281 286 288 289 288 287 287 287 285 283 281 278 276 278 279 279 281 282 283 284 285 287 289 290 291 291 288 281 277 276 276 274 271
237 244 248 252 253 255 253 254 253 258 261 262 265 269 273 277 282 287 289 290 288 285 283 283 283 280 279 278 276 277 276 276 277 279 282 285 286 286 288 290 292 293 290 284 279 277 275 273 271
243 245 246 252 255 259 258 257 253 256 261 265 266 268 271 275 281 284 288 287 285 283 282 282 284 277 275 275 276 278 275 272 273 277 280 282 283 284 286 290 292 293 292 287 284 278 274 271 271
244 244 245 249 256 260 260 259 258 261 263 264 263 265 271 273 277 284 287 287 284 281 281 281 281 278 278 276 277 277 275 273 272 275 278 280 281 283 285 288 290 291 291 290 287 281 277 272 273
241 243 248 253 257 263 263 261 266 265 263 261 260 265 267 269 272 276 283 285 281 279 279 280 280 279 277 276 276 275 272 273 275 278 279 279 280 283 285 286 290 291 291 290 286 284 281 275 273
245 249 252 255 261 263 264 265 265 264 262 261 265 267 270 271 271 272 273 276 277 277 278 277 280 282 279 278 275 273 271 271 275 279 280 281 283 283 283 285 287 289 288 286 283 284 283 279 276
Height
5900 5900 5900 5901 5902 5902 5901 5901 5900 5900 5901 5901 5900 5899 5898 5898 5898 5899 5897 5894 5893 5892 5892 5891 5891 5890 5890 5889 5888 5888 5887 5887 5886 5886 5885 5885 5885 5884 5884 5884 5884 5884 5883 5883 5883 5883 5882 5882 5882
5898 5898 5899 5900 5900 5900 5900 5899 5899 5899 5900 5899 5898 5898 5897 5896 5895 5895 5894 5892 5891 5891 5891 5890 5890 5889 5888 5888 5887 5886 5886 5885 5885 5885 5884 5884 5883 5883 5883 5882 5882 5882 5882 5882 5881 5881 5881 5881 5880
5896 5897 5898 5898 5898 5898 5899 5898 5897 5898 5898 5897 5897 5896 5896 5895 5894 5893 5892 5891 5890 5890 5889 5889 5888 5888 5887 5886 5885 5885 5885 5884 5884 5883 5883 5882 5882 5881 5881 5881 5881 5881 5881 5880 5880 5880 5879 5879 5879
5895 5896 5896 5897 5896 5896 5896 5896 5895 5896 5896 5896 5894 5894 5893 5893 5892 5892 5891 5890 5889 5888 5888 5887 5887 5886 5885 5885 5884 5883 5883 5883 5882 5882 5881 5881 5880 5880 5880 5880 5880 5880 5879 5879 5879 5878 5878 5878 5877
5893 5894 5894 5894 5894 5894 5894 5893 5893 5894 5894 5894 5893 5892 5891 5891 5891 5890 5889 5888 5887 5887 5886 5886 5885 5884 5884 5883 5882 5882 5881 5881 5881 5880 5880 5879 5879 5878 5878 5878 5878 5878 5878 5877 5877 5877 5876 5876 5876
5892 5892 5892 5892 5892 5892 5892 5891 5891 5892 5892 5891 5891 5890 5889 5889 5889 5888 5887 5886 5885 5885 5884 5884 5883 5883 5882 5881 5880 5880 5880 5879 5879 5879 5878 5878 5877 5877 5877 5876 5876 5876 5876 5876 5875 5875 5874 5874 5874
5890 5890 5890 5890 5890 5890 5890 5890 5889 5889 5889 5889 5889 5889 5887 5886 5886 5886 5885 5883 5883 5882 5882 5882 5881 5881 5880 5879 5879 5878 5878 5877 5877 5877 5876 5876 5876 5875 5875 5875 5874 5874 5874 5873 5873 5873 5872 5872 5871
5887 5888 5888 5888 5888 5888 5888 5888 5887 5887 5887 5887 5887 5886 5886 5884 5883 5882 5882 5881 5881 5880 5880 5880 5879 5879 5878 5877 5876 5876 5876 5875 5875 5874 5874 5874 5873 5873 5873 5872 5872 5872 5871 5871 5871 5870 5870 5869 5869
5884 5886 5885 5885 5886 5885 5885 5885 5885 5884 5884 5884 5884 5884 5883 5881 5880 5880 5880 5880 5879 5879 5878 5878 5877 5877 5876 5875 5874 5873 5873 5873 5872 5872 5871 5871 5871 5871 5870 5870 5870 5870 5869 5869 5868 5867 5867 5867 5867
5881 5882 5883 5883 5883 5883 5882 5883 5882 5882 5881 5881 5881 5881 5879 5878 5878 5878 5877 5877 5877 5877 5876 5875 5875 5874 5873 5872 5871 5871 5870 5870 5870 5869 5869 5869 5868 5868 5868 5867 5867 5867 5866 5866 5865 5865 5864 5864 5864
5878 5879 5879 5879 5879 5880 5879 5880 5879 5879 5878 5878 5878 5878 5877 5876 5876 5875 5875 5875 5874 5874 5873 5873 5872 5871 5870 5869 5869 5868 5868 5867 5867 5866 5866 5866 5866 5865 5865 5864 5864 5863 5863 5862 5862 5861 5861 5861 5861
5875 5875 5875 5876 5876 5876 5876 5876 5876 5876 5876 5875 5875 5875 5875 5874 5874 5873 5873 5872 5872 5872 5870 5870 5869 5868 5867 5867 5866 5866 5865 5864 5864 5864 5863 5863 5863 5863 5862 5861 5860 5860 5859 5859 5858 5858 5858 5858 5858
5872 5873 5872 5872 5872 5873 5873 5873 5873 5873 5873 5873 5873 5872 5872 5871 5871 5871 5870 5869 5869 5869 5867 5867 5866 5866 5865 5864 5863 5863 5862 5861 5861 5861 5861 5861 5860 5860 5859 5858 5857 5857 5856 5855 5855 5854 5854 5854 5854
5868 5868 5869 5869 5869 5869 5870 5870 5870 5870 5870 5870 5870 5869 5869 5869 5868 5868 5868 5867 5866 5866 5865 5865 5864 5863 5863 5861 5861 5860 5860 5859 5859 5858 5858 5858 5857 5857 5856 5855 5854 5853 5852 5852 5851 5850 5850 5850 5850
5864 5865 5865 5866 5866 5866 5866 5867 5867 5867 5867 5867 5867 5867 5866 5865 5865 5865 5865 5864 5864 5863 5863 5862 5861 5860 5859 5859 5857 5857 5857 5856 5856 5856 5855 5854 5854 5853 5853 5852 5851 5850 5849 5848 5847 5846 5846 5846 5846
5861 5862 5862 5863 5863 5863 5864 5863 5865 5864 5864 5864 5864 5864 5863 5863 5862 5862 5862 5862 5861 5861 5860 5859 5859 5858 5856 5855 5854 5854 5854 5853 5853 5853 5852 5851 5850 5850 5849 5848 5847 5846 5844 5843 5842 5842 5842 5842 5842
5857 5858 5859 5860 5860 5859 5859 5860 5861 5861 5861 5862 5862 5862 5861 5861 5860 5860 5859 5859 5859 5859 5858 5857 5855 5854 5853 5852 5850 5850 5851 5850 5850 5849 5849 5848 5847 5846 5846 5845 5843 5841 5840 5839 5838 5838 5838 5838 5838
5854 5854 5855 5856 5857 5856 5856 5856 5857 5858 5858 5858 5858 5858 5858 5858 5857 5856 5856 5856 5856 5855 5855 5854 5853 5851 5850 5849 5848 5848 5847 5847 5846 5846 5845 5844 5844 5843 5842 5841 5839 5838 5836 5835 5835 5834 5834 5834 5834
5849 5849 5850 5852 5852 5852 5852 5853 5853 5854 5855 5855 5855 5854 5854 5854 5853 5852 5852 5852 5852 5852 5851 5851 5850 5848 5847 5846 5845 5844 5844 5844 5843 5842 5842 5841 5840 5839 5838 5837 5836 5834 5832 5831 5831 5830 5830 5830 5830
5844 5845 5846 5847 5848 5848 5848 5849 5849 5850 5850 5851 5851 5850 5850 5850 5849 5848 5849 5849 5849 5848 5848 5847 5846 5845 5844 5842 5842 5841 5840 5839 5839 5839 5838 5837 5836 5835 5834 5833 5831 5830 5828 5828 5827 5827 5826 5826 5826
5840 5841 5842 5843 5843 5843 5843 5844 5846 5846 5846 5846 5847 5846 5847 5846 5846 5846 5846 5846 5845 5844 5844 5843 5842 5841 5840 5839 5839 5838 5837 5836 5836 5835 5834 5833 5832 5831 5830 5829 5827 5826 5825 5824 5823 5823 5822 5822 5822
5836 5837 5838 5838 5838 5839 5840 5839 5842 5841 5842 5842 5843 5843 5844 5844 5843 5843 5842 5841 5841 5840 5840 5839 5838 5837 5836 5835 5835 5834 5834 5832 5832 5832 5830 5829 5828 5827 5826 5825 5823 5822 5820 5819 5819 5818 5818 5818 5818
5832 5833 5834 5834 5834 5835 5835 5835 5837 5838 5838 5838 5839 5839 5840 5840 5839 5838 5838 5837 5836 5836 5836 5835 5834 5833 5832 5831 5831 5830 5829 5829 5828 5828 5827 5826 5824 5823 5822 5821 5819 5818 5816 5815 5815 5814 5814 5813 5813
5827 5828 5829 5829 5829 5830 5831 5831 5833 5834 5834 5834 5835 5835 5836 5836 5835 5834 5833 5832 5832 5832 5832 5831 5830 5829 5828 5828 5827 5826 5826 5825 5824 5823 5823 5822 5820 5819 5818 5816 5815 5814 5812 5811 5810 5810 5809 5809 5808
5822 5823 5823 5824 5824 5826 5827 5827 5829 5830 5830 5830 5831 5831 5832 5832 5832 5831 5830 5829 5828 5828 5828 5827 5826 5825 5824 5823 5823 5822 5822 5821 5820 5819 5819 5817 5816 5815 5814 5812 5811 5809 5808 5807 5806 5805 5805 5804 5803
5817 5818 5819 5820 5820 5822 5822 5822 5825 5826 5825 5825 5826 5827 5827 5827 5827 5826 5826 5825 5824 5824 5823 5822 5821 5821 5820 5819 5818 5818 5817 5817 5816 5815 5814 5813 5812 5811 5809 5808 5807 5805 5804 5802 5801 5801 5800 5799 5799
5813 5813 5815 5816 5816 5817 5818 5819 5820 5819 5820 5820 5821 5822 5822 5822 5822 5821 5820 5820 5820 5819 5818 5817 5817 5816 5815 5814 5813 5813 5813 5812 5811 5811 5810 5809 5808 5807 5805 5804 5802 5801 5799 5798 5797 5796 5795 5795 5794
5809 5810 5811 5811 5811 5811 5813 5814 5815 5815 5815 5816 5816 5817 5817 5817 5817 5816 5816 5816 5815 5814 5813 5813 5812 5811 5810 5809 5809 5809 5808 5807 5807 5807 5806 5805 5804 5803 5801 5800 5798 5797 5795 5794 5792 5791 5790 5790 5789
5805 5806 5805 5806 5807 5807 5807 5811 5810 5811 5811 5811 5811 5811 5811 5811 5811 5811 5811 5811 5810 5809 5809 5808 5807 5807 5806 5804 5804 5804 5803 5803 5803 5802 5801 5800 5799 5798 5797 5795 5794 5792 5791 5789 5788 5787 5786 5785 5784
5800 5801 5802 5802 5802 5802 5802 5806 5804 5805 5805 5805 5806 5806 5806 5806 5806 5806 5806 5805 5805 5804 5804 5804 5803 5802 5801 5800 5799 5799 5798 5798 5798 5797 5796 5795 5794 5793 5792 5791 5789 5788 5786 5785 5784 5782 5781 5780 5779